Time,TemperatureF,DewpointF,PressureIn,WindDirection,WindDirectionDegrees,WindSpeedMPH,WindSpeedGustMPH,Humidity,HourlyPrecipIn,Conditions,Clouds,dailyrainin,SoftwareType,DateUTC
2013-01-19 00:05:00,70.2,57.0,29.83,ENE,68,9.8,9.8,63,0.00,,---,0.00,VWS V13.01,2013-01-19 05:05:00,
2013-01-19 00:10:00,70.2,57.0,29.83,ESE,112,2.0,9.8,63,0.00,,---,0.00,VWS V13.01,2013-01-19 05:10:00,
2013-01-19 00:20:00,70.2,57.0,29.82,ENE,68,3.8,4.0,63,0.00,,---,0.00,VWS V13.01,2013-01-19 05:20:00,
2013-01-19 00:25:00,70.2,57.4,29.82,ESE,112,6.7,6.7,64,0.00,,---,0.00,VWS V13.01,2013-01-19 05:25:00,
2013-01-19 00:35:00,70.2,57.4,29.82,East,90,4.0,6.7,64,0.00,,---,0.00,VWS V13.01,2013-01-19 05:35:00,
2013-01-19 00:45:00,70.2,57.4,29.82,ESE,112,8.1,9.0,64,0.00,,---,0.00,VWS V13.01,2013-01-19 05:45:00,
2013-01-19 00:55:00,70.2,57.4,29.82,NE,45,4.9,8.1,64,0.00,,---,0.00,VWS V13.01,2013-01-19 05:55:00,
2013-01-19 01:00:00,70.2,57.4,29.82,ENE,68,5.6,6.9,64,0.00,,---,0.00,VWS V13.01,2013-01-19 06:00:00,
2013-01-19 01:10:00,70.2,57.4,29.81,ESE,112,2.2,2.2,64,0.00,,---,0.00,VWS V13.01,2013-01-19 06:10:00,
2013-01-19 01:20:00,70.2,57.0,29.81,ENE,68,0.9,0.9,63,0.00,,---,0.00,VWS V13.01,2013-01-19 06:20:00,
2013-01-19 01:25:00,70.2,57.0,29.80,East,90,5.6,5.6,63,0.00,,---,0.00,VWS V13.01,2013-01-19 06:25:00,
2013-01-19 01:30:00,70.2,57.4,29.80,ESE,112,7.4,7.4,64,0.00,,---,0.00,VWS V13.01,2013-01-19 06:30:00,
2013-01-19 01:40:00,70.2,57.4,29.80,East,90,4.9,7.6,64,0.00,,---,0.00,VWS V13.01,2013-01-19 06:40:00,
2013-01-19 01:45:00,70.2,57.9,29.80,ENE,68,3.8,4.9,65,0.00,,---,0.00,VWS V13.01,2013-01-19 06:45:00,
2013-01-19 01:55:00,70.2,57.4,29.80,East,90,2.9,2.9,64,0.00,,---,0.00,VWS V13.01,2013-01-19 06:55:00,
2013-01-19 02:05:00,70.3,58.0,29.79,ESE,112,8.1,8.1,65,0.00,,---,0.00,VWS V13.01,2013-01-19 07:05:00,
2013-01-19 02:15:00,70.3,58.0,29.79,East,90,6.5,6.9,65,0.00,,---,0.00,VWS V13.01,2013-01-19 07:15:00,
2013-01-19 02:25:00,70.3,58.0,29.79,ENE,68,4.0,4.9,65,0.00,,---,0.00,VWS V13.01,2013-01-19 07:25:00,
2013-01-19 02:30:00,70.3,58.0,29.79,ESE,112,3.1,6.7,65,0.00,,---,0.00,VWS V13.01,2013-01-19 07:30:00,
2013-01-19 02:40:00,70.3,58.0,29.78,ESE,112,2.0,6.0,65,0.00,,---,0.00,VWS V13.01,2013-01-19 07:40:00,
2013-01-19 02:50:00,70.3,58.0,29.78,ESE,112,0.4,4.5,65,0.00,,---,0.00,VWS V13.01,2013-01-19 07:50:00,
2013-01-19 03:00:00,70.3,58.0,29.78,East,90,0.0,2.2,65,0.00,,---,0.00,VWS V13.01,2013-01-19 08:00:00,
2013-01-19 03:05:00,70.3,58.0,29.78,East,90,0.2,0.2,65,0.00,,---,0.00,VWS V13.01,2013-01-19 08:05:00,
2013-01-19 03:15:00,70.3,58.5,29.78,NE,45,5.8,5.8,66,0.00,,---,0.00,VWS V13.01,2013-01-19 08:15:00,
2013-01-19 03:25:00,70.3,58.0,29.78,East,90,6.5,6.5,65,0.00,,---,0.00,VWS V13.01,2013-01-19 08:25:00,
2013-01-19 03:35:00,70.5,57.8,29.78,ENE,68,4.7,4.7,64,0.00,,---,0.00,VWS V13.01,2013-01-19 08:35:00,
2013-01-19 03:40:00,70.5,57.8,29.78,ENE,68,7.6,7.6,64,0.00,,---,0.00,VWS V13.01,2013-01-19 08:40:00,
2013-01-19 03:50:00,70.5,57.3,29.78,ENE,68,1.1,7.6,63,0.00,,---,0.00,VWS V13.01,2013-01-19 08:50:00,
2013-01-19 03:55:00,70.5,57.3,29.78,East,90,6.5,6.5,63,0.00,,---,0.00,VWS V13.01,2013-01-19 08:55:00,
2013-01-19 04:05:00,70.5,57.8,29.78,ESE,112,1.3,4.3,64,0.00,,---,0.00,VWS V13.01,2013-01-19 09:05:00,
2013-01-19 04:10:00,70.5,57.8,29.78,East,90,4.7,4.7,64,0.00,,---,0.00,VWS V13.01,2013-01-19 09:10:00,
2013-01-19 04:20:00,70.5,57.8,29.78,East,90,0.0,2.7,64,0.00,,---,0.00,VWS V13.01,2013-01-19 09:20:00,
2013-01-19 04:30:00,70.7,57.5,29.78,East,90,1.3,4.5,63,0.00,,---,0.00,VWS V13.01,2013-01-19 09:30:00,
2013-01-19 04:40:00,70.7,57.5,29.78,East,90,0.0,0.0,63,0.00,,---,0.00,VWS V13.01,2013-01-19 09:40:00,
2013-01-19 04:50:00,70.7,57.5,29.78,NE,45,0.0,2.7,63,0.00,,---,0.00,VWS V13.01,2013-01-19 09:50:00,
2013-01-19 04:55:00,70.7,57.5,29.78,NE,45,0.0,0.0,63,0.00,,---,0.00,VWS V13.01,2013-01-19 09:55:00,
2013-01-19 05:05:00,70.7,57.5,29.78,East,90,0.7,0.7,63,0.00,,---,0.00,VWS V13.01,2013-01-19 10:05:00,
2013-01-19 05:15:00,70.9,58.1,29.78,East,90,19.5,19.5,64,0.00,,---,0.00,VWS V13.01,2013-01-19 10:15:00,
2013-01-19 05:20:00,70.9,58.5,29.78,ESE,112,2.2,19.5,65,0.00,,---,0.00,VWS V13.01,2013-01-19 10:20:00,
2013-01-19 05:30:00,70.9,59.0,29.78,ESE,112,2.0,3.4,66,0.00,,---,0.00,VWS V13.01,2013-01-19 10:30:00,
2013-01-19 05:35:00,70.9,59.4,29.78,ENE,68,1.6,2.0,67,0.00,,---,0.00,VWS V13.01,2013-01-19 10:35:00,
2013-01-19 05:45:00,71.2,59.7,29.78,East,90,5.4,5.4,67,0.00,,---,0.00,VWS V13.01,2013-01-19 10:45:00,
2013-01-19 05:55:00,71.2,59.7,29.78,ENE,68,0.0,0.7,67,0.00,,---,0.00,VWS V13.01,2013-01-19 10:55:00,
2013-01-19 06:00:00,71.2,59.7,29.78,ENE,68,4.7,4.7,67,0.00,,---,0.00,VWS V13.01,2013-01-19 11:00:00,
2013-01-19 06:10:00,71.2,59.7,29.78,ENE,68,2.5,7.4,67,0.00,,---,0.00,VWS V13.01,2013-01-19 11:10:00,
2013-01-19 07:50:00,71.8,61.9,29.81,East,90,3.6,5.6,71,0.00,,---,0.00,VWS V13.01,2013-01-19 12:50:00,
2013-01-19 07:55:00,71.4,61.5,29.81,NE,45,4.5,4.5,71,0.00,,---,0.00,VWS V13.01,2013-01-19 12:55:00,
2013-01-19 08:05:00,71.4,61.5,29.81,ENE,68,1.1,1.1,71,0.00,,---,0.00,VWS V13.01,2013-01-19 13:05:00,
2013-01-19 08:15:00,71.4,61.5,29.81,NE,45,0.2,7.4,71,0.00,,---,0.00,VWS V13.01,2013-01-19 13:15:00,
2013-01-19 08:20:00,71.4,61.5,29.82,ENE,68,0.0,0.2,71,0.00,,---,0.00,VWS V13.01,2013-01-19 13:20:00,
2013-01-19 08:25:00,71.4,61.5,29.82,ENE,68,0.0,0.0,71,0.00,,---,0.00,VWS V13.01,2013-01-19 13:25:00,
2013-01-19 08:30:00,71.6,61.7,29.82,ENE,68,0.0,0.0,71,0.00,,---,0.00,VWS V13.01,2013-01-19 13:30:00,
2013-01-19 08:40:00,71.6,61.3,29.83,WSW,248,5.1,5.6,70,0.00,,---,0.00,VWS V13.01,2013-01-19 13:40:00,
2013-01-19 08:50:00,70.3,60.5,29.84,West,270,4.0,14.8,71,0.00,,---,0.00,VWS V13.01,2013-01-19 13:50:00,
2013-01-19 14:05:00,71.2,64.0,29.78,WSW,248,21.9,21.9,78,0.02,,---,0.18,VWS V13.01,2013-01-19 19:05:00,
2013-01-19 14:10:00,70.9,63.7,29.77,North,0,18.8,18.8,78,0.02,,---,0.18,VWS V13.01,2013-01-19 19:10:00,
2013-01-19 14:20:00,70.9,63.7,29.76,NW,315,7.8,26.2,78,0.00,,---,0.18,VWS V13.01,2013-01-19 19:20:00,
2013-01-19 14:30:00,70.9,63.7,29.76,West,270,18.8,19.2,78,0.00,,---,0.18,VWS V13.01,2013-01-19 19:30:00,
2013-01-19 14:35:00,70.9,64.1,29.76,West,270,18.1,18.8,79,0.00,,---,0.18,VWS V13.01,2013-01-19 19:35:00,
2013-01-19 15:03:00,70.7,63.5,29.76,ENE,68,4.0,9.2,78,0.02,,---,0.02,VWS V13.01,2013-01-19 20:03:00,
2013-01-19 15:10:00,70.0,63.2,29.77,ENE,68,17.7,17.7,79,0.02,,---,0.02,VWS V13.01,2013-01-19 20:10:00,
2013-01-19 15:20:00,69.8,63.0,29.76,ENE,68,15.7,15.7,79,0.02,,---,0.02,VWS V13.01,2013-01-19 20:20:00,
2013-01-19 15:30:00,69.6,62.8,29.76,ENE,68,15.7,15.7,79,0.02,,---,0.02,VWS V13.01,2013-01-19 20:30:00,
2013-01-19 15:45:00,69.6,62.8,29.76,North,0,17.7,19.5,79,0.02,,---,0.02,VWS V13.01,2013-01-19 20:45:00,
2013-01-19 15:55:00,69.6,62.8,29.76,North,0,21.9,21.9,79,0.04,,---,0.06,VWS V13.01,2013-01-19 20:55:00,
2013-01-19 16:05:00,69.6,63.2,29.76,ENE,68,0.4,9.6,80,0.04,,---,0.06,VWS V13.01,2013-01-19 21:05:00,
2013-01-19 16:15:00,69.4,63.0,29.76,ENE,68,0.0,1.1,80,0.04,,---,0.06,VWS V13.01,2013-01-19 21:15:00,
2013-01-19 16:20:00,69.4,63.0,29.76,ENE,68,18.8,18.8,80,0.04,,---,0.06,VWS V13.01,2013-01-19 21:20:00,
2013-01-19 16:35:00,69.3,63.2,29.76,NE,45,0.2,3.4,81,0.06,,---,0.08,VWS V13.01,2013-01-19 21:35:00,
2013-01-19 16:55:00,69.1,62.7,29.75,NE,45,1.6,17.2,80,0.04,,---,0.10,VWS V13.01,2013-01-19 21:55:00,
2013-01-19 17:05:00,69.3,62.8,29.75,NE,45,15.7,20.1,80,0.04,,---,0.10,VWS V13.01,2013-01-19 22:05:00,
2013-01-19 17:15:00,69.4,63.0,29.75,NE,45,16.3,22.2,80,0.04,,---,0.10,VWS V13.01,2013-01-19 22:15:00,
2013-01-19 17:25:00,69.4,63.0,29.74,NE,45,2.0,16.3,80,0.04,,---,0.10,VWS V13.01,2013-01-19 22:25:00,
2013-01-19 17:35:00,69.4,63.0,29.75,NE,45,3.8,3.8,80,0.02,,---,0.10,VWS V13.01,2013-01-19 22:35:00,
2013-01-19 17:45:00,69.3,62.8,29.75,NNE,22,1.3,5.8,80,0.02,,---,0.10,VWS V13.01,2013-01-19 22:45:00,
2013-01-19 17:55:00,69.3,63.2,29.75,ENE,68,3.8,4.7,81,0.00,,---,0.10,VWS V13.01,2013-01-19 22:55:00,
2013-01-19 18:05:00,69.4,63.7,29.75,ENE,68,2.9,9.8,82,0.00,,---,0.10,VWS V13.01,2013-01-19 23:05:00,
2013-01-19 18:10:00,69.6,63.9,29.75,NE,45,10.5,10.5,82,0.00,,---,0.10,VWS V13.01,2013-01-19 23:10:00,
2013-01-19 18:15:00,69.6,63.9,29.76,East,90,9.4,10.5,82,0.00,,---,0.10,VWS V13.01,2013-01-19 23:15:00,
2013-01-19 18:25:00,69.6,63.9,29.76,ENE,68,3.8,6.9,82,0.00,,---,0.10,VWS V13.01,2013-01-19 23:25:00,
2013-01-19 18:30:00,69.6,63.9,29.76,NE,45,3.4,3.8,82,0.00,,---,0.10,VWS V13.01,2013-01-19 23:30:00,
2013-01-19 18:40:00,69.6,63.5,29.77,East,90,1.6,2.7,81,0.00,,---,0.10,VWS V13.01,2013-01-19 23:40:00,
2013-01-19 18:55:00,69.6,63.9,29.78,NE,45,3.4,5.4,82,0.00,,---,0.10,VWS V13.01,2013-01-19 23:55:00,
2013-01-19 19:10:00,69.6,63.9,29.78,NE,45,2.7,2.7,82,0.00,,---,0.10,VWS V13.01,2013-01-20 00:10:00,
2013-01-19 19:15:00,69.4,63.4,29.78,NE,45,3.4,3.4,81,0.00,,---,0.10,VWS V13.01,2013-01-20 00:15:00,
2013-01-19 19:25:00,69.6,63.5,29.78,NE,45,2.7,20.6,81,0.00,,---,0.10,VWS V13.01,2013-01-20 00:25:00,
2013-01-19 19:35:00,69.4,63.4,29.78,NE,45,3.8,4.3,81,0.00,,---,0.10,VWS V13.01,2013-01-20 00:35:00,
2013-01-19 19:50:00,69.4,63.4,29.77,NNE,22,1.6,4.7,81,0.00,,---,0.10,VWS V13.01,2013-01-20 00:50:00,
2013-01-19 20:05:00,69.1,62.7,29.77,ENE,68,0.7,0.7,80,0.00,,---,0.10,VWS V13.01,2013-01-20 01:05:00,
2013-01-19 20:10:00,69.1,62.7,29.78,ENE,68,16.1,17.2,80,0.00,,---,0.10,VWS V13.01,2013-01-20 01:10:00,
2013-01-19 20:20:00,69.1,62.7,29.77,NE,45,11.9,14.3,80,0.00,,---,0.10,VWS V13.01,2013-01-20 01:20:00,
2013-01-19 20:30:00,69.1,62.7,29.78,NE,45,15.2,21.7,80,0.00,,---,0.10,VWS V13.01,2013-01-20 01:30:00,
2013-01-19 20:40:00,68.9,62.5,29.78,NE,45,0.0,19.9,80,0.00,,---,0.10,VWS V13.01,2013-01-20 01:40:00,
2013-01-19 20:55:00,68.7,62.7,29.78,NE,45,11.0,14.1,81,0.00,,---,0.10,VWS V13.01,2013-01-20 01:55:00,
2013-01-19 21:05:00,68.7,62.7,29.78,NNW,338,0.4,17.9,81,0.00,,---,0.10,VWS V13.01,2013-01-20 02:05:00,
2013-01-19 21:20:00,68.7,62.7,29.78,NW,315,13.6,13.9,81,0.00,,---,0.10,VWS V13.01,2013-01-20 02:20:00,
2013-01-19 21:30:00,68.7,62.7,29.78,NW,315,2.0,21.0,81,0.00,,---,0.10,VWS V13.01,2013-01-20 02:30:00,
2013-01-19 21:40:00,68.7,62.7,29.78,NW,315,19.2,19.2,81,0.00,,---,0.10,VWS V13.01,2013-01-20 02:40:00,
2013-01-19 21:50:00,68.7,62.7,29.78,NW,315,19.0,19.2,81,0.00,,---,0.10,VWS V13.01,2013-01-20 02:50:00,
2013-01-19 21:55:00,68.5,62.5,29.77,NNW,338,12.8,19.0,81,0.00,,---,0.10,VWS V13.01,2013-01-20 02:55:00,
2013-01-19 22:05:00,68.5,62.5,29.78,NNW,338,8.3,17.9,81,0.00,,---,0.10,VWS V13.01,2013-01-20 03:05:00,
2013-01-19 22:10:00,68.5,62.5,29.78,NNW,338,4.3,18.6,81,0.00,,---,0.10,VWS V13.01,2013-01-20 03:10:00,
2013-01-19 22:20:00,68.4,62.3,29.77,NNW,338,12.1,21.7,81,0.00,,---,0.10,VWS V13.01,2013-01-20 03:20:00,
2013-01-19 22:30:00,68.2,62.1,29.77,NW,315,13.2,13.2,81,0.00,,---,0.10,VWS V13.01,2013-01-20 03:30:00,
2013-01-19 22:40:00,68.2,62.1,29.77,North,0,14.5,14.5,81,0.00,,---,0.10,VWS V13.01,2013-01-20 03:40:00,
2013-01-19 22:45:00,68.2,62.1,29.77,NNW,338,0.9,17.9,81,0.00,,---,0.10,VWS V13.01,2013-01-20 03:45:00,
2013-01-19 22:50:00,68.2,62.1,29.76,NNW,338,1.3,1.3,81,0.00,,---,0.10,VWS V13.01,2013-01-20 03:50:00,
2013-01-19 23:00:00,67.6,61.6,29.76,NW,315,0.0,22.6,81,0.00,,---,0.10,VWS V13.01,2013-01-20 04:00:00,
2013-01-19 23:05:00,67.6,62.0,29.76,NW,315,0.0,0.0,82,0.00,,---,0.10,VWS V13.01,2013-01-20 04:05:00,
2013-01-19 23:15:00,67.6,62.0,29.76,NNW,338,1.6,21.9,82,0.00,,---,0.10,VWS V13.01,2013-01-20 04:15:00,
2013-01-19 23:20:00,67.6,62.0,29.76,NNW,338,1.6,1.6,82,0.00,,---,0.10,VWS V13.01,2013-01-20 04:20:00,
2013-01-19 23:30:00,67.3,61.3,29.76,NNW,338,1.1,15.0,81,0.00,,---,0.10,VWS V13.01,2013-01-20 04:30:00,
2013-01-19 23:40:00,67.3,61.3,29.76,NNW,338,16.8,21.9,81,0.00,,---,0.10,VWS V13.01,2013-01-20 04:40:00,
2013-01-19 23:50:00,67.1,61.1,29.75,NNW,338,15.7,15.7,81,0.00,,---,0.10,VWS V13.01,2013-01-20 04:50:00,
2013-01-19 23:55:00,67.1,61.1,29.75,NNW,338,15.7,15.7,81,0.00,,---,0.10,VWS V13.01,2013-01-20 04:55:00,